Location: Ay?beleni
(36.6500°N, 30.3000°E)
Time: 01:19:31
(UTC+00:00)

STARLINK-29 - Pass Details

Date: 09 April 2020
Orbit: 387 x 401 km, 53.0° (Epoch: 25 May)

Event Time Altitude Azimuth Distance (km) Brightness Sun altitude
Rises 16:49:33 0° 232° (SW) 2,266 7.4 -5.0°
Reaches altitude 10° 16:51:36 10° 236° (SW) 1,418 6.4 -5.4°
Maximum altitude 16:54:45 63° 318° (NW) 441 3.4 -6.0°
Drops below altitude 10° 16:57:56 10° 41° (NE) 1,437 5.5 -6.6°
Enters shadow 17:01:37 -5° 46° (NE) 2,955 7.0 -7.3°
